Tracking 25995 objects as of 20-Aug-2022
HD Live streaming from Space Station
objects crossing your sky now

POLAR SCOUT YUKON

Track POLAR SCOUT YUKON now!
10-day predictions


NORAD ID: 43808
Int'l Code: 2018-099BC
Perigee: 572.2 km
Apogee: 591.0 km
Inclination: 97.6 °
Period: 96.2 minutes
Semi major axis: 6952 km
RCS: Unknown
Launch date: December 3, 2018
Source: United States (US)
Launch site: AIR FORCE WESTERN TEST RANGE (AFWTR)
aabbcc
Your satellite tracking list
Your tracking list is empty




NASA's NSSDC Master Catalog

Two Line Element Set (TLE):
1 43808U 18099BC  22231.88201918  .00002670  00000-0  23333-3 0  9999
2 43808  97.6224 298.2602 0013570  64.4032 295.8591 14.97549248202285
Source of the keplerian elements: AFSPC